Simultaneous Nadir Overpasses (SNOs) Predictions

Prediction of SNOs between METOP-B and NPP Satellite Orbit:

Table of predicted SNOs for the next 14.0 days since TLE Epoch: 6/1/2024
Index Date (METOP-B) Time (METOP-B) Lat,Lon (METOP-B) SZA (METOP-B ) Date (NPP) Time (NPP) Lat,Lon (NPP) SZA (NPP ) Distance(km) Time Diff (sec)
1 06/13/2024 01:49:10 -74.04, -34.92 129.11 06/13/2024 01:48:04 -74.06, -38.06 128.92 96.06 66
2 06/13/2024 02:39:53 73.80, 131.85 50.68 06/13/2024 02:38:44 73.83, 129.79 50.83 63.74 69
3 06/13/2024 03:30:37 -73.71, -61.04 129.41 06/13/2024 03:29:26 -73.72, -62.63 129.30 49.50 71
4 06/13/2024 04:21:20 73.52, 105.86 50.43 06/13/2024 04:20:07 73.50, 105.21 50.45 20.61 73
5 06/13/2024 05:12:04 -73.43, -87.02 129.66 06/13/2024 05:10:50 -73.44, -87.34 129.62 10.02 74
6 06/13/2024 06:02:45 73.34, 80.10 50.26 06/13/2024 06:01:34 73.36, 80.15 50.30 2.67 71
7 06/13/2024 06:53:27 -73.35,-112.55 129.73 06/13/2024 06:52:18 -73.35,-112.51 129.72 1.05 69
8 06/13/2024 07:44:06 73.35, 54.80 50.27 06/13/2024 07:43:04 73.37, 54.75 50.31 2.45 62
9 06/13/2024 08:34:48 -73.37,-137.85 129.72 06/13/2024 08:33:48 -73.36,-137.91 129.71 2.20 60
10 06/13/2024 09:25:28 73.32, 29.39 50.24 06/13/2024 09:24:33 73.33, 29.46 50.26 2.42 55
11 06/13/2024 10:16:10 -73.33,-163.26 129.75 06/13/2024 10:15:17 -73.32,-163.20 129.76 2.20 53
12 06/13/2024 11:06:49 73.34, 4.09 50.25 06/13/2024 11:06:03 73.34, 4.06 50.27 1.10 46
13 06/13/2024 11:57:31 -73.35, 171.44 129.74 06/13/2024 11:56:47 -73.33, 171.40 129.75 2.29 44
14 06/13/2024 12:48:11 73.31, -21.32 50.22 06/13/2024 12:47:32 73.30, -21.23 50.23 2.96 39
15 06/13/2024 13:38:53 -73.32, 146.03 129.77 06/13/2024 13:38:17 -73.34, 146.00 129.74 3.24 36
16 06/13/2024 14:29:32 73.32, -46.62 50.23 06/13/2024 14:29:02 73.32, -46.63 50.24 0.79 30
17 06/13/2024 15:20:14 -73.33, 120.73 129.76 06/13/2024 15:19:46 -73.31, 120.71 129.78 3.15 28
18 06/13/2024 16:10:53 73.34, -71.92 50.25 06/13/2024 16:10:32 73.33, -72.03 50.24 3.65 21
19 06/13/2024 17:01:36 -73.30, 95.31 129.79 06/13/2024 17:01:16 -73.32, 95.31 129.77 1.87 20
20 06/13/2024 17:52:15 73.31, -97.34 50.21 06/13/2024 17:52:01 73.29, -97.32 50.20 2.05 14
21 06/13/2024 18:42:57 -73.32, 70.01 129.78 06/13/2024 18:42:46 -73.33, 69.91 129.76 3.58 11
22 06/13/2024 19:33:37 73.27,-122.75 50.18 06/13/2024 19:33:31 73.30,-122.72 50.21 3.17 6
23 06/13/2024 20:24:19 -73.29, 44.60 129.81 06/13/2024 20:24:15 -73.29, 44.62 129.81 0.85 4
24 06/13/2024 21:14:58 73.29,-148.05 50.19 06/13/2024 21:15:01 73.31,-148.12 50.22 3.28 3
25 06/13/2024 22:05:40 -73.30, 19.30 129.80 06/13/2024 22:05:45 -73.30, 19.22 129.80 2.60 5
26 06/13/2024 22:56:20 73.26,-173.46 50.16 06/13/2024 22:56:30 73.28,-173.41 50.17 2.51 10
27 06/13/2024 23:47:02 -73.27, -6.11 129.83 06/13/2024 23:47:14 -73.27, -6.07 129.84 1.45 12
28 06/14/2024 00:37:41 73.28, 161.24 50.17 06/14/2024 00:38:00 73.29, 161.19 50.18 1.89 19
29 06/14/2024 01:28:23 -73.29, -31.41 129.82 06/14/2024 01:28:44 -73.28, -31.47 129.83 2.20 21
30 06/14/2024 02:19:03 73.24, 135.83 50.14 06/14/2024 02:19:29 73.25, 135.90 50.14 2.57 26
31 06/14/2024 03:09:45 -73.26, -56.82 129.85 06/14/2024 03:10:13 -73.24, -56.76 129.88 2.75 28
32 06/14/2024 04:00:24 73.26, 110.52 50.15 06/14/2024 04:00:59 73.26, 110.50 50.15 0.67 35
33 06/14/2024 04:51:06 -73.27, -82.13 129.84 06/14/2024 04:51:43 -73.25, -82.16 129.87 2.65 37
34 06/14/2024 05:41:46 73.23, 85.11 50.12 06/14/2024 05:42:28 73.22, 85.21 50.10 3.31 42
35 06/14/2024 06:32:28 -73.24,-107.54 129.87 06/14/2024 06:33:13 -73.26,-107.56 129.86 2.65 45
36 06/14/2024 07:23:07 73.24, 59.81 50.14 06/14/2024 07:23:58 73.23, 59.81 50.11 1.17 51
37 06/14/2024 08:13:49 -73.26,-132.84 129.86 06/14/2024 08:14:42 -73.22,-132.85 129.90 3.64 53
38 06/14/2024 09:04:28 73.26, 34.51 50.15 06/14/2024 09:05:28 73.25, 34.41 50.12 3.54 60
39 06/14/2024 09:55:11 -73.22,-158.25 129.89 06/14/2024 09:56:12 -73.24,-158.25 129.89 1.35 61
40 06/14/2024 10:45:50 73.23, 9.10 50.12 06/14/2024 10:46:57 73.21, 9.12 50.08 2.50 67
41 06/14/2024 11:36:32 -73.24, 176.45 129.88 06/14/2024 11:37:42 -73.25, 176.35 129.88 3.21 70
42 06/14/2024 12:27:13 73.15, -16.42 50.04 06/14/2024 12:28:26 73.17, -16.16 50.03 8.74 73
43 06/14/2024 13:17:56 -73.11, 150.82 130.00 06/14/2024 13:19:10 -73.16, 151.17 129.98 12.72 74
44 06/14/2024 14:08:40 72.86, -42.37 49.79 06/14/2024 14:09:50 72.88, -40.91 49.71 47.73 70
45 06/14/2024 14:59:24 -72.77, 124.78 130.29 06/14/2024 15:00:33 -72.82, 126.53 130.36 57.84 69
46 06/14/2024 15:50:08 72.52, -68.40 49.50 06/14/2024 15:51:14 72.59, -65.68 49.39 90.89 66
47 06/14/2024 16:40:51 -72.48, 98.86 130.54 06/14/2024 16:41:57 -72.53, 101.75 130.68 96.93 66



Historial Predications of SNOs between METOP-B and NPP
